Location: Béaulencourt
(50.0796°N, 2.8795°E)
Time: 20:02:22
(UTC+00:00)

Helios 1A Rocket - Pass Details

Date: 20 January 2026
Orbit: 425 x 435 km, 98.3° (Epoch: 16 February)

Event Time Altitude Azimuth Distance (km) Brightness Sun altitude
Rises 05:41:39 0° 168° (SSE) 2,438 6.4 -18.1°
Reaches altitude 10° 05:43:40 10° 170° (S) 1,571 5.4 -17.8°
Maximum altitude 05:47:02 75° 256° (WSW) 468 2.2 -17.2°
Enters shadow 05:48:50 26° 338° (NNW) 934 3.7 -17.0°
